This demonstration page uses our WeatherBlox Daily Observations layout. Learn more.

Left ArrowRight Arrow

Hourly Observations for October 4, 2020

Temp ( °F °C ) Dew Point ( °F °C ) Humidity (%) Winds ( mph kmh ) Pressure ( in mb ) Visibility ( mi km ) Precip ( " mm )
12:15 am 00:15 Cloudy 52 11 50 10 94 94 SSW 5 7 30.17 1022 10 16 N/A
12:35 am 00:35 Cloudy 52 11 50 10 94 94 SW 3 6 30.17 1022 10 16 N/A
12:55 am 00:55 Cloudy 52 11 50 10 94 94 N N/A 30.16 1021 10 16 N/A
1:15 am 01:15 Cloudy 52 11 52 11 100 100 N N/A 30.15 1021 10 16 N/A
1:35 am 01:35 Cloudy 52 11 52 11 100 100 N N/A 30.15 1021 10 16 N/A
1:55 am 01:55 Cloudy 50 10 50 10 100 100 N N/A 30.16 1021 10 16 N/A
2:15 am 02:15 Cloudy 50 10 50 10 100 100 N N/A 30.15 1021 10 16 N/A
2:36 am 02:36 Cloudy 50 10 50 10 100 100 N N/A 30.15 1021 10 16 N/A
2:55 am 02:55 Cloudy 50 10 50 10 100 100 N N/A 30.14 1021 10 16 N/A
3:15 am 03:15 Cloudy 50 10 50 10 100 100 N N/A 30.14 1021 10 16 N/A
3:35 am 03:35 Cloudy 50 10 50 10 100 100 N N/A 30.14 1021 10 16 N/A
3:55 am 03:55 Cloudy 50 10 50 10 100 100 N N/A 30.13 1020 10 16 N/A
4:15 am 04:15 Cloudy 48 9 48 9 100 100 N N/A 30.12 1020 10 16 N/A
4:35 am 04:35 Cloudy 50 10 50 10 100 100 N N/A 30.11 1020 10 16 N/A
4:55 am 04:55 Cloudy 50 10 50 10 100 100 ESE 5 7 30.11 1020 10 16 N/A
5:15 am 05:15 Cloudy 50 10 50 10 100 100 ESE 3 6 30.11 1020 10 16 N/A
5:35 am 05:35 Cloudy 50 10 50 10 100 100 N N/A 30.11 1020 10 16 N/A
5:55 am 05:55 Cloudy 50 10 50 10 100 100 N N/A 30.11 1020 10 16 N/A
6:15 am 06:15 Cloudy 50 10 50 10 100 100 ESE 5 7 30.11 1020 10 16 N/A
6:35 am 06:35 Cloudy 50 10 50 10 100 100 N N/A 30.10 1019 10 16 N/A
6:55 am 06:55 Cloudy 50 10 50 10 100 100 SE 5 7 30.10 1019 10 16 N/A
7:15 am 07:15 Cloudy 50 10 50 10 100 100 N N/A 30.10 1019 10 16 N/A
7:35 am 07:35 Cloudy 50 10 50 10 100 100 ESE 3 6 30.10 1019 10 16 N/A
7:55 am 07:55 Cloudy 50 10 50 10 100 100 N N/A 30.10 1019 10 16 N/A
8:15 am 08:15 Cloudy 50 10 50 10 100 100 N N/A 30.09 1019 10 16 N/A
8:35 am 08:35 Cloudy 50 10 50 10 100 100 N N/A 30.09 1019 10 16 N/A
8:55 am 08:55 Cloudy 50 10 50 10 100 100 N N/A 30.09 1019 10 16 N/A
9:15 am 09:15 Cloudy 50 10 50 10 100 100 N 3 6 30.10 1019 10 16 N/A
9:35 am 09:35 Cloudy 50 10 50 10 100 100 N 5 7 30.10 1019 10 16 N/A
9:55 am 09:55 Cloudy 52 11 52 11 100 100 N N/A 30.11 1020 10 16 N/A
10:15 am 10:15 Cloudy 52 11 52 11 100 100 NNW 8 13 30.12 1020 10 16 N/A
10:35 am 10:35 Cloudy 52 11 52 11 100 100 N 8 13 30.12 1020 10 16 N/A
10:55 am 10:55 Cloudy 50 10 50 10 100 100 N 10 17 30.12 1020 10 16 N/A
11:15 am 11:15 Cloudy 50 10 50 10 100 100 N 12 19 30.11 1020 3 5 N/A
11:35 am 11:35 Cloudy 50 10 50 10 100 100 N 12 19 30.12 1020 10 16 N/A
11:55 am 11:55 Cloudy 50 10 50 10 100 100 NNW 13 20 30.13 1020 10 16 N/A
12:15 pm 12:15 Cloudy 50 10 50 10 100 100 NNW 16 26 30.14 1021 10 16 N/A
12:35 pm 12:35 Cloudy 48 9 48 9 100 100 N 12 19 30.14 1021 10 16 N/A
12:55 pm 12:55 Cloudy 50 10 50 10 100 100 N 14 22 30.15 1021 10 16 N/A
1:15 pm 13:15 Cloudy 50 10 50 10 100 100 N 9 15 30.15 1021 10 16 N/A
1:35 pm 13:35 Cloudy 52 11 52 11 100 100 NNW 13 20 30.15 1021 10 16 N/A
1:55 pm 13:55 Cloudy 52 11 52 11 100 100 N 13 20 30.15 1021 10 16 N/A
2:15 pm 14:15 Cloudy 52 11 52 11 100 100 N 12 19 30.15 1021 10 16 N/A
2:35 pm 14:35 Cloudy 50 10 50 10 100 100 NNW 10 17 30.15 1021 10 16 N/A
2:55 pm 14:55 Cloudy 52 11 50 10 94 94 NNW 15 24 30.15 1021 10 16 N/A
3:15 pm 15:15 Cloudy 52 11 50 10 94 94 NNW 12 19 30.15 1021 10 16 N/A
3:35 pm 15:35 Cloudy 52 11 50 10 94 94 NNW 13 20 30.15 1021 10 16 N/A
3:55 pm 15:55 Cloudy 52 11 48 9 88 88 NW 10 17 30.15 1021 10 16 N/A
4:15 pm 16:15 Cloudy 50 10 48 9 94 94 NW 16 26 30.17 1022 10 16 N/A
4:35 pm 16:35 Cloudy 52 11 50 10 94 94 NW 9 15 30.17 1022 10 16 N/A
4:55 pm 16:55 Cloudy 54 12 50 10 88 88 NW 12 19 30.16 1021 10 16 N/A
5:15 pm 17:15 Cloudy 54 12 48 9 82 82 NW 13 20 30.16 1021 10 16 N/A
5:35 pm 17:35 Mostly Cloudy 54 12 48 9 82 82 NNW 10 17 30.16 1021 10 16 N/A
5:55 pm 17:55 Mostly Cloudy 54 12 48 9 82 82 N 8 13 30.16 1021 10 16 N/A
6:15 pm 18:15 Mostly Cloudy 52 11 46 8 82 82 WNW 8 13 30.18 1022 10 16 N/A
6:35 pm 18:35 Partly Cloudy 52 11 46 8 82 82 NW 7 11 30.19 1022 10 16 N/A
6:55 pm 18:55 Partly Cloudy 50 10 46 8 88 88 NW 9 15 30.20 1023 10 16 N/A
7:15 pm 19:15 Sunny 50 10 46 8 88 88 WNW 8 13 30.20 1023 10 16 N/A
7:35 pm 19:35 Mostly Cloudy 48 9 46 8 94 94 WNW 9 15 30.21 1023 10 16 N/A
7:55 pm 19:55 Mostly Cloudy 50 10 45 7 82 82 WNW 8 13 30.21 1023 10 16 N/A
8:15 pm 20:15 Clear 48 9 43 6 82 82 WNW 8 13 30.22 1023 10 16 N/A
8:35 pm 20:35 Clear 46 8 43 6 87 87 NW 8 13 30.23 1024 10 16 N/A
8:55 pm 20:55 Mostly Cloudy 48 9 45 7 87 87 NNW 8 13 30.23 1024 10 16 N/A
9:15 pm 21:15 Mostly Cloudy 46 8 46 8 100 100 N 8 13 30.25 1024 10 16 N/A
9:35 pm 21:35 Mostly Cloudy 48 9 45 7 87 87 NNW 12 19 30.25 1025 10 16 N/A
9:55 pm 21:55 Cloudy 46 8 45 7 93 93 NNW 9 15 30.26 1025 10 16 N/A
10:15 pm 22:15 Cloudy 46 8 43 6 87 87 NNW 9 15 30.27 1025 10 16 N/A
10:35 pm 22:35 Partly Cloudy 45 7 43 6 93 93 NW 7 11 30.27 1025 10 16 N/A
10:55 pm 22:55 Clear 43 6 43 6 100 100 NW 7 11 30.28 1026 10 16 N/A
11:15 pm 23:15 Clear 43 6 43 6 100 100 NW 6 9 30.29 1026 10 16 N/A
11:35 pm 23:35 Clear 41 5 41 5 100 100 NW 5 7 30.30 1026 10 16 N/A
11:55 pm 23:55 Clear 41 5 41 5 100 100 WNW 3 6 30.29 1026 10 16 N/A

Powered by AerisWeather